Back to catalog

CZ-6A DEB

AlivePO
NORAD 54967·DEBRIS·🇨🇳 China

Launched Nov 11, 2022 from Taiyuan Satellite Launch Center

Loading…

Next Passes (next 24 hours)

TLE

FreshSource: Space-Track

Epoch: Sep 13, 2026, 09:42 UTC

1 54967U 22151TG  26256.40473639  .00000113  00000-0  19278-3 0  9994
2 54967  99.0441 119.8266 0424023 218.5179 138.4976 13.31119266186232

Track CZ-6A DEB in real time with AllMySat

Download on the App Store